Simultaneous Nadir Overpasses (SNOs) Predictions

Prediction of SNOs between GOES-15 and METOP-B Satellite Orbit:

Table of predicted SNOs for the next 14.0 days since TLE Epoch: 2/6/2021
Index Date Time (GOES-15) GOES-15 Lat,Lon METOP-B Lat,Lon Distance(km) Time Diff (sec)
1 02/07/2021 18:00:40 -0.02,-127.30 -0.05,-127.26 5.13 80
2 02/10/2021 05:59:00 0.04,-127.13 0.09,-126.85 31.96 80
3 02/11/2021 18:15:12 -0.08,-127.12 0.85,-131.42 490.38 80
4 02/12/2021 17:57:12 -0.05,-127.07 -0.21,-126.42 74.49 80
5 02/14/2021 06:13:32 0.10,-126.94 -0.80,-131.02 463.88 80
6 02/15/2021 05:55:32 0.07,-126.90 0.27,-126.01 101.17 80
7 02/16/2021 18:11:43 -0.11,-126.88 0.74,-130.57 421.17 80
8 02/17/2021 17:53:43 -0.08,-126.83 -0.38,-125.58 143.32 80
9 02/19/2021 06:10:04 0.13,-126.70 -0.62,-130.18 396.15 80
